Dubuque, IA

3:28 AM CDT on October 17, 2019 (GMT -0500)
Dubuque Regional

Weather History for KDBQ - August, 2019

Change the Weather History Date:

Saturday, August 3, 2019

  Actual Average Record
Temperature  
Mean Temperature 73 °F 71 °F  
Max Temperature 84 °F 81 °F 103 °F (1930)
Min Temperature 61 °F 62 °F 46 °F (1894)
Degree Days  
Heating Degree Days 0 0  
Month to date heating degree days 0 0  
Since 1 June heating degree days 29 48  
Since 1 July heating degree days 0 8  
Cooling Degree Days 8 7  
Month to date cooling degree days 18 21  
Year to date cooling degree days 471 421  
Since 1 June cooling degree days 445 384  
Growing Degree Days 22 (Base 50)    
Moisture  
Dew Point 60 °F    
Average Humidity 65    
Maximum Humidity 90    
Minimum Humidity 40    
Precipitation  
Precipitation 0.00 in 0.14 in 2.64 in (1959)
Month to date precipitation 0.00 0.42  
Year to date precipitation 26.11 22.00  
Snow  
Snow 0.00 in 0.00 in - ()
Month to date snowfall 0.0 0.0  
Since 1 June snowfall 0.0 0.0  
Since 1 July snowfall 0.0 0.0  
Snow Depth 0.00 in    
Sea Level Pressure  
Sea Level Pressure 30.10 in    
Wind  
Wind Speed 3 mph (North)    
Max Wind Speed 20 mph    
Max Gust Speed 27 mph    
Visibility 10 miles    
Events      
T = Trace of Precipitation, MM = Missing Value Source: NWS Daily Summary

Daily Weather History Graph

Daily Weather History Graph

Search for Another Location

Airport or City:

Astronomy

Aug. 03, 2019 Rise Set
Actual Time 5:57 AM CDT 8:20 PM CDT
Civil Twilight 5:25 AM CDT 8:51 PM CDT
Nautical Twilight 4:46 AM CDT 9:30 PM CDT
Astronomical Twilight 4:02 AM CDT 10:14 PM CDT
Moon 8:53 AM CDT (8/3) 10:22 PM CDT (8/3)
Length of Visible Light 15h 26m
Length of Day
14h 23m
Waxing Crescent, 10% of the Moon is Illuminated
Aug 3
Waxing Crescent
Aug 7
First Quarter
Aug 15
Full
Aug 23
Last Quarter
Aug 30
New

Hourly Weather History & Observations

Time (CDT) Temp. Heat Index Dew Point Humidity Pressure Visibility Wind Dir Wind Speed Gust Speed Precip Events Conditions
12:53 AM 62.1 °F - 57.0 °F 84% 30.12 in 10.0 mi Calm Calm - N/A   Clear
1:53 AM 62.1 °F - 57.0 °F 84% 30.12 in 10.0 mi Calm Calm - N/A   Clear
2:53 AM 64.9 °F - 57.0 °F 75% 30.12 in 10.0 mi Calm Calm - N/A   Clear
3:53 AM 63.0 °F - 59.0 °F 87% 30.11 in 10.0 mi Calm Calm - N/A   Clear
4:53 AM 63.0 °F - 59.0 °F 87% 30.11 in 10.0 mi Calm Calm - N/A   Clear
5:53 AM 63.0 °F - 59.0 °F 87% 30.10 in 10.0 mi Calm Calm - N/A   Clear
6:53 AM 64.9 °F - 61.0 °F 87% 30.12 in 10.0 mi Calm Calm - N/A   Clear
7:53 AM 66.0 °F - 61.0 °F 84% 30.13 in 10.0 mi NNE 8.1 mph - N/A   Clear
8:53 AM 70.0 °F - 62.1 °F 76% 30.13 in 10.0 mi NNE 8.1 mph - N/A   Clear
9:53 AM 77.0 °F - 61.0 °F 58% 30.13 in 10.0 mi NNE 6.9 mph - N/A   Clear
10:53 AM 78.1 °F - 57.9 °F 50% 30.13 in 10.0 mi Calm Calm - N/A   Clear
11:53 AM 81.0 °F 81.1 °F 57.9 °F 45% 30.13 in 10.0 mi Variable 3.5 mph - N/A   Clear
12:53 PM 81.0 °F 81.1 °F 57.9 °F 45% 30.11 in 10.0 mi North 5.8 mph - N/A   Clear
1:53 PM 82.0 °F 81.6 °F 55.9 °F 41% 30.09 in 10.0 mi East 4.6 mph - N/A   Clear
2:53 PM 81.0 °F 81.3 °F 59.0 °F 47% 30.08 in 10.0 mi SW 4.6 mph - N/A   Clear
3:53 PM 82.0 °F 82.0 °F 57.9 °F 44% 30.07 in 10.0 mi Variable 4.6 mph - N/A   Clear
4:53 PM 82.0 °F 82.7 °F 61.0 °F 49% 30.06 in 10.0 mi West 5.8 mph - N/A   Clear
5:53 PM 82.0 °F 82.7 °F 61.0 °F 49% 30.05 in 10.0 mi WNW 4.6 mph - N/A   Clear
6:53 PM 82.0 °F 83.4 °F 64.0 °F 54% 30.04 in 10.0 mi NNW 3.5 mph - N/A   Clear
7:53 PM 80.1 °F 81.2 °F 62.1 °F 54% 30.05 in 10.0 mi Calm Calm - N/A   Clear
8:53 PM 72.0 °F - 64.0 °F 76% 30.05 in 10.0 mi Calm Calm - N/A   Clear
9:53 PM 69.1 °F - 63.0 °F 81% 30.06 in 10.0 mi Calm Calm - N/A   Clear
10:53 PM 68.0 °F - 62.1 °F 81% 30.08 in 10.0 mi Calm Calm - N/A   Clear
11:53 PM 68.0 °F - 64.0 °F 87% 30.09 in 10.0 mi NNE 13.8 mph 27.6 mph N/A   Clear